This demonstration page uses our WeatherBlox Daily Observations layout. Learn more.

Left ArrowRight Arrow

Hourly Observations for May 21, 2017

Temp ( °F °C ) Dew Point ( °F °C ) Humidity (%) Winds ( mph kmh ) Pressure ( in mb ) Visibility ( mi km ) Precip ( " mm )
12:04 am 00:04 Cloudy with Thunderstorms 69 20.6 69 20.6 100 100 W 15 24 30.15 1021 10 16 0.01 0.25
12:33 am 00:33 Cloudy with Nearby Thunderstorms 69 20.6 68 20 96 96 VRB 6 9 30.15 1021 9 14 0.04 1.02
12:53 am 00:53 Cloudy with Thunderstorms 69 20.6 68 20 96 96 VRB 5 7 30.12 1020 5 8 0.12 3.05
12:59 am 00:59 Cloudy with Nearby Thunderstorms 69 20.6 68 20 96 96 VRB 6 9 30.15 1021 2 3 0.09 2.29
1:19 am 01:19 Cloudy with Strong Thunderstorms 68 20 68 20 100 100 N 3 6 30.12 1020 2 3 0.36 9.14
1:23 am 01:23 Cloudy with Thunderstorms 68 20 68 20 100 100 NNE 3 6 30.12 1020 3 5 0.36 9.14
1:43 am 01:43 Mostly Cloudy with Nearby Thunderstorms 68 20 68 20 100 100 NE 3 6 30.12 1020 10 16 0.37 9.40
1:53 am 01:53 Mostly Cloudy with Nearby Thunderstorms 68 20 68 20 100 100 Calm 30.09 1019 10 16 0.37 9.40
2:01 am 02:01 Mostly Cloudy with Light Rain 68 20 68 20 100 100 Calm 30.12 1020 10 16 0.00 0.03
2:53 am 02:53 Cloudy with Light Rain 68 20 68 20 100 100 Calm 30.05 1018 10 16 0.02 0.51
3:36 am 03:36 Mostly Cloudy with Light Rain 68 20 68 20 100 100 ENE 3 6 30.06 1018 10 16 0.02 0.51
3:53 am 03:53 Cloudy with Light Rain 69 20.6 69 20.6 100 100 ENE 5 7 30.04 1017 10 16 0.03 0.76
4:53 am 04:53 Cloudy with Heavy Rain 69 20.6 69 20.6 100 100 VRB 3 6 30.04 1017 5 8 0.07 1.78
5:53 am 05:53 Cloudy with Light Rain 69 20.6 68 20 96 96 NNE 3 6 30.03 1017 10 16 0.03 0.76
5:59 am 05:59 Cloudy with Light Rain 69 20.6 69 20.6 100 100 NNE 3 6 30.06 1018 10 16 0.00 0.03
6:07 am 06:07 Cloudy 68 20 68 20 100 100 NNE 6 9 30.06 1018 10 16 0.00 0.03
6:38 am 06:38 Cloudy with Light Rain 68 20 68 20 100 100 NNE 6 9 30.06 1018 10 16 0.00 0.03
6:53 am 06:53 Cloudy with Light Rain 68 20 68 20 100 100 NE 7 11 30.05 1018 10 16 0.00 0.03
7:53 am 07:53 Cloudy 68 20 68 20 100 100 NNE 6 9 30.06 1018 10 16 0.00 0.03
8:09 am 08:09 Cloudy 69 20.6 69 20.6 100 100 NNE 5 7 30.09 1019 10 16 0.00 0.00
8:53 am 08:53 Cloudy with Heavy Rain 69 20.6 69 20.6 100 100 WSW 6 9 30.09 1019 2 2 0.09 2.29
8:56 am 08:56 Cloudy with Heavy Rain 68 20 68 20 100 100 NNW 5 7 30.09 1019 1 1 0.12 3.05
9:06 am 09:06 Cloudy with Rain 68 20 68 20 100 100 NNE 5 7 30.09 1019 1 1 0.24 6.10
9:09 am 09:09 Cloudy with Rain 68 20 68 20 100 100 NE 6 9 30.09 1019 2 3 0.25 6.35
9:17 am 09:17 Cloudy with Light Rain 69 20.6 69 20.6 100 100 NNE 3 6 30.09 1019 5 8 0.25 6.35
9:30 am 09:30 Cloudy with Light Rain 69 20.6 69 20.6 100 100 Calm 30.09 1019 10 16 0.25 6.35
9:53 am 09:53 Cloudy 69 20.6 69 20.6 100 100 Calm 30.08 1019 10 16 0.25 6.35
10:20 am 10:20 Cloudy 71 21.7 70 21.1 96 96 NNW 5 7 30.06 1018 10 16 0.00 0.00
10:53 am 10:53 Cloudy with Light Rain 70 21.1 69 20.6 97 97 Calm 30.09 1019 4 6 0.02 0.51
11:20 am 11:20 Cloudy with Light Rain 70 21.1 70 21.1 100 100 N 5 7 30.12 1020 7 11 0.04 1.02
11:32 am 11:32 Cloudy with Light Rain 70 21.1 70 21.1 100 100 NNE 5 7 30.12 1020 6 10 0.05 1.27
11:46 am 11:46 Cloudy 71 21.7 70 21.1 96 96 NNW 3 6 30.12 1020 10 16 0.05 1.27
11:53 am 11:53 Cloudy with Light Rain 71 21.7 70 21.1 96 96 WNW 3 6 30.10 1019 10 16 0.05 1.27
12:40 pm 12:40 Mostly Cloudy 74 23.3 70 21.1 88 88 NW 8 13 30.09 1019 10 16 0.00 0.03
12:53 pm 12:53 Mostly Cloudy 74 23.3 70 21.1 88 88 WNW 8 13 30.10 1019 10 16 0.00 0.03
1:53 pm 13:53 Partly Cloudy 77 25 68 20 74 74 W 6 9 30.08 1019 10 16 0.00 0.00
2:53 pm 14:53 Partly Cloudy 78 25.6 68 20 71 71 WSW 6 9 30.06 1018 10 16 0.00 0.00
3:53 pm 15:53 Partly Cloudy 80 26.7 67 19.4 64 64 WNW 8 13 30.05 1018 10 16 0.00 0.00
4:53 pm 16:53 Cloudy 80 26.7 68 20 67 67 SW 6 9 30.03 1017 10 16 0.00 0.00
5:53 pm 17:53 Mostly Cloudy 81 27.2 68 20 65 65 VRB 3 6 30.01 1016 10 16 0.00 0.00
6:53 pm 18:53 Mostly Sunny 81 27.2 67 19.4 62 62 W 5 7 30.02 1017 10 16 0.00 0.00
7:53 pm 19:53 Sunny 79 26.1 68 20 69 69 W 3 6 30.04 1017 10 16 0.00 0.00
8:53 pm 20:53 Clear 77 25 69 20.6 77 77 Calm 30.05 1018 10 16 0.00 0.00
9:53 pm 21:53 Clear 74 23.3 70 21.1 88 88 Calm 30.06 1018 10 16 0.00 0.00
10:53 pm 22:53 Mostly Clear 72 22.2 70 21.1 94 94 Calm 30.07 1018 10 16 0.00 0.00
11:53 pm 23:53 Mostly Cloudy 72 22.2 71 21.7 97 97 Calm 30.06 1018 10 16 0.00 0.00

Powered by AerisWeather